sat.trackr.live / text

‹ back to catalog

STARLINK-31273

NORAD 58846 · 2024-017W

PAYLOAD ACTIVE UNKNOWN

§ Identity

Operator
Country
US
Launch date
2024-01-24
Launch site
AFWTR
Launch vehicle
Mass (kg)
RCS (m²)

Purposes: comms

External: N2YO · Heavens-Above · Gunter

§ Orbital elements

Epoch: 2026-09-20T20:05:29.580288Z

Period
93.85 min
Inclination
53.1603°
Eccentricity
0.0001073
Mean motion
15.34416714 rev/d
Perigee alt
461.9 km
Apogee alt
463.4 km
Semi-major
6,840.8 km
B*
4.6500e-4
RAAN
15.7887°
Arg perigee
80.6952°
Mean anomaly
279.4172°
Rev number
14,996

§ Raw data

STARLINK-312731 58846U 24017W   26263.83714792  .00015375  00000+0  46500-3 0  99932 58846  53.1603  15.7887 0001073  80.6952 279.4172 15.34416714149965

JSON: /api/v1/satellites/58846 · /tle

For live sub-satellite position, see the globe view (requires WebGL).

§ Visibility from observer

Set your observer location to see the next 7 days of passes ≥ 10°. The values pass through the URL so the page stays shareable.

No JS? Fill the form by hand. The geolocation button needs JavaScript.